Hourly Data Report for July 12, 2013

All times are specified in Local Standard Time (LST). Add 1 hour to adjust for Daylight Saving Time where and when it is observed.

VICTORIA INTL A
BRITISH COLUMBIA

48°38'50.000" N
123°25'33.000" W
19.50 m
1018621
71799
YYJ

Download Data

Hourly Data (July 2013)
Hourly Data Report for July 12, 2013
Temp Definition
°C
Dew Point Temp Definition
°C
Rel Hum Definition
%
Wind Dir Definition
10's deg

Wind Spd Definition
km/h
Visibility Definition
km
Stn Press Definition
kPa
Hmdx Definition


Wind Chill Definition


Weather Definition


TIME
00:00 13.8 9.1 73 25 8 48.3 101.43     LegendNANA
01:00 12.3 9.2 81 26 8 48.3 101.43     Mainly Clear
02:00 11.4 9.3 87 23 4 48.3 101.43     LegendNANA
03:00 12.3 9.9 85 28 6 48.3 101.45     LegendNANA
04:00 12.5 9.5 82 29 10 48.3 101.46     Mostly Cloudy
05:00 11.4 8.6 83 27 5 48.3 101.46     LegendNANA
06:00 13.4 9.3 76 28 10 48.3 101.48     LegendNANA
07:00 13.6 9.9 78 27 8 48.3 101.48     Mostly Cloudy
08:00 16.1 8.9 62 26 8 48.3 101.47     LegendNANA
09:00 17.9 9.1 56 25 11 48.3 101.46     LegendNANA
10:00 18.2 9.6 57 14 9 48.3 101.46     Mainly Clear
11:00 19.5 9.5 52 6 14 48.3 101.48     LegendNANA
12:00 19.6 8.1 47 7 14 48.3 101.49     LegendNANA
13:00 18.6 8.9 53 8 15 48.3 101.50     Mostly Cloudy
14:00 19.6 9.3 51 13 23 48.3 101.48     LegendNANA
15:00 19.5 8.6 49 12 24 48.3 101.47     LegendNANA
16:00 20.5 8.9 47 13 19 48.3 101.47     Mainly Clear
17:00 19.9 10.4 54 11 13 48.3 101.47     LegendNANA
18:00 19.1 10.2 56 12 9 48.3 101.46     LegendNANA
19:00 18.5 11.7 64 31 11 48.3 101.49     Mainly Clear
20:00 16.8 10.9 68 30 6 48.3 101.53     LegendNANA
21:00 16.6 10.7 68 29 13 48.3 101.58     LegendNANA
22:00 15.7 8.5 62 29 14 48.3 101.61     Clear
23:00 15.2 8.3 63 29 18 48.3 101.67     LegendNANA

Notes on Data Quality.

Legend

  • E = Estimated
  • M = Missing
  • NA = Not Available
Date modified: